Tracking 20712 objects as of 29-May-2020
HD Live streaming from Space Station
objects crossing your sky now

IRIDIUM 33 DEB

Track IRIDIUM 33 DEB now!
10-day predictions


NORAD ID: 36486
Int'l Code: 1997-051WC
Perigee: 669.7 km
Apogee: 706.5 km
Inclination: 86.4 °
Period: 98.4 minutes
Semi major axis: 7059 km
RCS: 0.0127 m2 (small)
Launch date: September 14, 1997
Source: United States (US)
Launch site: TYURATAM MISSILE AND SPACE COMPLEX (TTMTR)

Note: This is SATELLITE DEBRIS
aabbcc
Your satellite tracking list
Your tracking list is empty




NASA's NSSDC Master Catalog

Two Line Element Set (TLE):
1 36486U 97051WC  20149.70717724 +.00001265 +00000-0 +23701-3 0  9990
2 36486 086.3527 134.0495 0026115 071.2182 289.1860 14.63795136366769
Source of the keplerian elements: AFSPC